Probability
0 0 0 0 0 0 0 0 0 0 0 0 0 0 0 0 0 0 0 0 0 0 0 0 0 0 0 0 0 0 0 0 0 0 1 2 2 2 2 1 0 0 0 0
0 0 0 0 0 0 0 0 0 0 0 0 0 0 0 0 0 0 0 0 0 0 0 0 0 0 0 0 0 0 0 0 0 0 0 1 1 1 1 0 0 0 0 0
0 0 0 0 0 0 0 0 0 0 0 0 0 0 0 0 0 0 0 0 0 0 0 0 0 0 0 0 0 0 0 0 0 0 0 0 0 0 0 0 0 0 0 0
0 0 0 0 0 0 0 0 0 0 0 0 0 0 0 0 0 0 0 0 0 0 0 0 0 0 0 0 0 0 0 0 0 0 0 0 0 0 0 0 0 0 0 0
0 0 0 0 0 0 0 0 0 0 0 0 0 0 0 0 0 0 0 0 0 0 0 0 0 0 0 0 0 0 0 0 0 0 0 0 0 0 0 0 0 0 0 0
0 0 0 0 0 0 0 0 0 0 0 0 0 0 0 0 0 0 0 0 0 0 0 0 0 0 0 0 0 0 0 0 0 0 0 0 0 0 0 0 0 0 0 0
0 0 0 0 0 0 0 0 0 0 0 0 0 0 0 0 0 0 0 0 0 0 0 0 0 0 0 0 0 0 0 0 0 0 0 0 0 0 0 0 0 0 0 0
0 0 0 0 0 0 0 0 0 0 0 0 0 0 0 0 0 0 0 0 0 0 0 0 0 0 0 0 0 0 0 0 0 0 0 0 0 0 0 0 0 0 0 0
0 0 0 0 0 0 0 0 0 0 0 0 0 0 0 0 0 0 0 0 0 0 0 0 0 0 0 0 0 0 0 0 0 0 0 0 0 0 0 0 0 0 0 0
0 0 0 0 0 0 0 0 0 0 0 0 0 0 0 0 0 0 0 0 0 0 0 0 0 0 0 0 0 0 0 0 0 0 0 0 0 0 0 0 0 0 0 0
0 0 0 0 0 0 0 0 0 0 0 0 0 0 0 0 0 0 0 0 0 0 0 0 0 0 0 0 0 0 0 0 0 0 0 0 0 0 0 0 0 0 0 0
0 0 0 0 0 0 0 0 0 0 0 0 0 0 0 0 0 0 0 0 0 0 0 0 0 0 0 0 0 0 0 0 0 0 0 0 0 0 0 0 0 0 0 0
0 0 0 0 0 0 0 0 0 0 0 0 0 0 0 0 0 0 0 0 0 0 0 0 0 0 0 0 0 0 0 0 0 0 0 0 0 0 0 0 0 0 0 0
0 0 0 0 0 0 0 0 0 0 0 0 0 0 0 0 0 0 0 0 0 0 0 0 0 0 0 0 0 0 0 0 0 0 0 0 0 0 0 0 0 0 0 0
0 0 0 0 0 0 0 0 0 0 0 0 0 0 0 0 0 0 0 0 0 0 0 0 0 0 0 0 0 0 0 0 0 0 0 0 0 0 0 0 0 0 0 0
0 0 0 0 0 0 0 0 0 0 0 0 0 0 0 0 0 0 0 0 0 0 0 0 0 0 0 0 0 0 0 0 0 0 0 0 0 0 0 0 0 0 0 0
0 0 0 0 0 0 0 0 0 0 0 0 0 0 0 0 0 0 0 0 0 0 0 0 0 0 0 0 0 0 0 0 0 0 0 0 0 0 0 0 0 0 0 0
0 0 0 0 0 0 0 0 0 0 0 0 0 0 0 0 0 0 0 0 0 0 0 0 0 0 0 0 0 0 0 0 0 0 0 0 0 0 0 0 0 0 0 0
0 0 0 0 0 0 0 0 0 0 0 0 0 0 0 0 0 0 0 0 0 0 0 0 0 0 0 0 0 0 0 0 0 0 0 0 0 0 0 0 0 0 0 0
0 0 0 0 0 0 0 0 0 0 0 0 0 0 0 0 0 0 0 0 0 0 0 0 0 0 0 0 0 0 0 0 0 0 0 0 0 0 0 0 0 0 0 0
0 0 0 0 0 0 0 0 0 0 0 0 0 0 0 0 0 0 0 0 0 0 0 0 0 0 0 0 0 0 0 0 0 0 0 0 0 0 0 0 0 0 0 0
0 0 0 0 0 0 0 0 0 0 0 0 0 0 0 0 0 0 0 0 0 0 0 0 0 0 0 0 0 0 0 0 0 0 0 0 0 0 0 0 0 0 0 0
0 0 0 0 0 0 0 0 0 0 0 0 0 0 0 0 0 0 0 0 0 0 0 0 0 0 0 0 0 0 0 0 0 0 0 0 0 0 0 0 0 0 0 0
0 0 0 0 0 0 0 0 0 0 0 0 0 0 0 0 0 0 0 0 0 0 0 0 0 0 0 0 0 0 0 0 0 0 0 0 0 0 0 0 0 0 0 0
0 0 0 0 0 0 0 0 0 0 0 0 0 0 0 0 0 0 0 0 0 0 0 0 0 0 0 0 0 0 0 0 0 0 0 0 0 0 0 0 0 0 0 0
0 0 0 0 0 0 0 0 0 0 0 0 0 0 0 0 0 0 0 0 0 0 0 0 0 0 0 0 0 0 0 0 0 0 0 0 0 0 0 0 0 0 0 0
0 0 0 0 0 0 0 0 0 0 0 0 0 0 0 0 0 0 0 0 0 0 0 0 0 0 0 0 0 0 0 0 0 0 0 0 0 0 0 0 0 0 0 0
Wind_Speed
5 5 3 4 5 3 4 5 6 6 5 5 4 4 5 5 7 8 9 10 10 10 10 10 11 10 10 10 9 8 8 7 7 7 6 6 4 4 3 3 3 2 2 2
4 4 3 5 5 4 4 4 5 5 6 3 3 2 4 5 7 8 9 10 11 11 11 11 11 11 11 11 10 8 7 7 7 7 7 6 5 4 3 3 3 3 2 2
3 3 4 5 4 3 2 1 2 4 4 3 4 5 5 5 6 6 8 9 10 10 10 10 10 10 11 10 10 9 7 7 7 7 7 6 5 4 3 3 3 3 3 2
3 2 5 4 1 0 1 1 1 0 2 3 4 5 4 3 4 6 9 10 10 9 10 10 9 10 10 10 9 8 8 7 7 7 7 6 5 4 4 3 3 3 3 2
1 3 6 4 1 1 1 2 1 1 2 4 5 4 3 3 4 6 7 8 8 8 9 9 10 10 10 9 9 9 8 8 7 7 7 6 5 4 4 3 3 3 3 2
2 3 6 4 2 1 2 3 2 1 2 4 4 4 5 6 7 8 8 7 8 8 8 9 10 9 10 10 9 9 9 8 7 7 6 6 6 5 4 3 3 3 3 2
4 5 7 4 3 1 1 5 2 1 2 2 3 5 7 8 8 8 8 8 9 9 8 9 10 9 10 10 9 10 9 8 7 7 6 6 5 4 3 3 3 3 3 3
3 4 8 2 1 3 5 2 1 1 2 3 5 6 7 8 9 9 9 9 9 9 9 9 9 9 10 10 10 9 8 8 7 7 6 5 5 4 3 3 3 3 3 3
7 7 3 2 3 2 1 1 2 2 3 4 5 7 8 8 8 8 9 9 8 9 10 9 8 8 9 10 10 9 8 7 7 7 5 5 5 4 3 2 2 3 3 3
3 4 3 2 1 1 1 2 3 3 3 4 5 7 7 8 8 8 9 8 8 9 10 10 9 9 9 10 9 8 8 7 6 6 5 5 4 3 3 3 2 3 3 3
4 4 3 3 3 2 2 2 3 3 3 4 5 7 7 7 8 8 9 8 8 8 9 10 10 10 10 10 9 8 8 6 6 5 5 5 4 3 4 3 3 3 3 3
6 5 4 5 3 2 2 3 4 4 5 5 5 6 7 7 7 7 8 8 9 9 10 10 10 10 10 10 8 8 7 6 5 4 4 4 4 5 6 6 7 7 5 4
5 3 4 4 2 2 3 4 4 4 5 6 5 5 6 7 7 7 8 9 9 10 10 10 10 10 10 9 9 7 7 6 5 5 4 4 4 4 5 6 7 6 6 5
2 1 2 2 3 3 3 3 3 3 4 4 5 5 6 7 7 8 9 9 9 9 9 9 9 10 10 9 9 7 6 7 6 4 4 4 4 4 3 3 4 4 5 5
2 3 4 3 2 2 2 2 3 4 4 5 5 5 6 7 8 9 9 9 9 9 9 9 9 10 10 9 9 7 6 5 4 4 4 4 4 4 3 3 3 3 3 4
2 2 2 2 3 3 3 3 4 5 5 5 6 6 7 7 8 8 8 8 8 9 10 10 10 10 9 9 8 6 5 8 7 4 4 4 3 3 3 3 3 3 3 3
2 3 3 3 4 4 4 4 4 5 5 5 6 7 7 7 8 8 8 8 7 8 9 9 10 10 9 8 7 5 5 5 8 5 4 3 3 3 3 3 3 2 3 4
4 4 3 4 4 4 4 4 4 5 5 5 6 6 6 7 8 8 9 8 8 8 8 8 9 9 9 8 7 5 5 4 4 4 4 4 4 3 3 3 3 3 3 3
2 3 3 3 3 3 4 4 4 4 5 5 5 6 6 6 7 8 7 7 8 9 9 9 14 11 9 9 9 5 5 5 4 4 4 5 4 3 3 3 3 3 3 2
2 2 2 3 3 3 4 4 4 4 4 4 5 6 6 7 6 7 7 6 6 6 9 11 10 8 8 8 9 4 4 5 4 4 4 4 4 3 3 3 3 3 3 2
3 3 3 3 3 4 4 4 4 5 5 4 5 6 7 7 6 6 6 7 7 8 9 12 8 7 7 8 8 4 4 4 4 4 4 4 4 4 4 3 3 3 2 2
2 3 3 3 3 4 4 4 4 4 5 5 5 5 6 6 6 6 6 5 7 12 8 6 5 9 10 10 5 4 4 5 4 4 4 4 4 4 4 4 3 3 2 2
2 3 3 3 4 4 4 4 4 4 4 5 5 5 5 5 5 5 6 5 6 11 8 5 9 13 14 7 4 4 5 5 4 4 4 4 4 4 3 4 3 3 3 2
2 2 3 3 2 3 4 4 4 4 4 5 5 5 5 5 4 4 5 9 12 12 7 9 14 14 12 4 4 4 4 4 4 4 4 4 3 3 3 3 3 3 3 3
2 2 2 2 2 3 4 4 4 4 4 4 5 5 4 3 4 5 5 6 10 11 6 9 13 13 7 4 4 4 4 4 4 4 3 3 3 3 3 3 3 3 3 3
1 2 2 2 2 3 3 3 3 3 4 4 4 4 4 4 4 5 4 5 7 9 7 5 6 8 5 5 5 5 4 5 5 4 3 3 3 3 3 3 4 3 3 3
2 2 2 2 2 2 2 3 3 4 4 4 5 5 4 4 4 4 5 5 5 5 5 5 5 5 5 5 5 5 4 4 4 4 3 3 3 3 3 3 3 3 3 3
Wind_Direction
261 274 265 265 275 263 219 217 230 255 256 275 289 301 317 334 339 346 348 349 346 341 337 338 339 338 335 331 329 328 325 323 319 317 317 318 311 308 308 309 296 280 271 269
286 278 281 284 287 270 255 250 247 266 277 294 308 321 332 336 340 344 341 339 338 336 334 335 336 334 333 332 329 324 319 317 319 321 320 321 318 318 316 311 295 285 275 265
276 309 333 282 269 252 245 278 242 251 266 318 331 329 321 322 331 331 332 332 333 331 328 327 328 327 326 325 325 323 319 319 321 322 319 318 316 318 315 314 315 304 294 283
285 342 255 250 311 143 169 328 8 99 315 322 312 303 301 310 325 326 328 327 326 326 325 324 323 325 325 326 327 325 322 320 322 323 316 313 314 312 313 315 310 296 295 289
233 269 277 288 317 359 236 280 286 239 308 322 329 327 308 325 331 319 315 313 313 316 316 319 322 323 325 327 327 326 321 319 317 316 312 310 309 304 308 311 309 298 291 292
177 236 256 257 284 308 97 283 265 246 289 315 344 331 296 318 322 316 316 316 317 317 318 322 323 326 329 327 327 323 318 314 313 313 309 304 298 295 300 299 296 299 294 286
209 237 263 259 282 31 163 264 273 259 276 288 268 252 280 306 312 313 314 317 320 321 322 321 323 328 327 326 322 316 314 313 314 313 306 301 302 294 294 294 297 298 294 290
190 220 256 253 125 179 226 258 267 275 278 278 280 288 299 308 312 316 318 320 322 322 321 322 326 328 325 323 319 316 315 315 314 313 308 308 307 307 298 282 279 284 284 290
197 218 240 197 195 214 187 227 255 259 275 278 289 295 303 307 309 311 314 316 319 319 318 321 325 326 321 318 319 320 319 315 313 312 309 309 305 303 302 290 274 272 268 275
243 255 249 237 228 253 227 242 263 269 277 280 285 293 300 305 310 313 314 315 318 319 318 319 322 321 316 315 319 319 318 316 315 312 311 310 303 296 291 285 281 278 275 272
252 270 289 258 235 248 274 286 294 296 286 284 288 294 297 301 305 308 312 315 315 314 313 313 317 318 318 319 320 318 316 315 316 312 308 307 305 294 286 273 278 283 274 272
229 225 213 247 244 239 258 275 278 286 296 297 292 292 299 299 300 303 307 312 315 314 313 313 314 315 317 319 317 314 315 317 315 314 310 308 309 314 310 304 304 299 300 298
223 233 221 245 256 241 246 265 275 276 280 293 296 292 297 299 302 305 308 312 313 312 310 310 312 314 317 319 316 310 308 312 311 313 314 314 313 314 319 326 325 316 311 312
226 204 251 248 251 260 260 272 283 290 289 291 295 300 302 302 304 308 308 309 308 309 311 312 314 315 317 318 316 310 307 308 312 308 311 314 313 309 308 314 325 333 330 332
242 221 234 260 274 281 284 292 302 302 303 304 303 304 306 306 306 305 305 309 311 312 313 316 317 316 318 319 319 317 312 310 310 310 313 313 313 313 312 313 319 328 338 339
258 258 252 255 266 277 286 287 288 292 297 300 304 304 302 299 299 301 306 311 313 314 317 318 317 318 322 324 323 320 315 318 320 318 316 316 316 316 317 321 325 332 335 334
219 259 262 269 272 277 273 269 271 282 290 292 295 300 305 308 309 310 312 312 308 305 310 314 315 319 323 325 324 320 317 318 321 320 315 312 309 309 312 315 316 321 324 327
220 233 238 240 253 268 278 280 279 284 284 287 297 303 307 310 310 312 315 317 318 317 318 319 320 324 326 328 327 325 325 326 327 323 318 315 314 314 314 315 316 318 326 332
243 250 259 259 255 258 269 275 280 282 286 292 298 299 298 299 301 306 312 318 322 322 324 324 327 332 328 327 331 329 331 331 331 329 325 323 327 325 320 317 316 317 317 325
271 272 275 281 280 266 270 276 279 284 287 290 294 298 301 303 306 310 312 308 305 304 310 320 324 325 325 324 330 329 330 330 329 331 335 334 330 327 323 318 315 316 320 324
279 285 287 286 287 282 275 277 279 284 290 290 288 291 295 300 305 308 312 310 311 315 319 324 329 326 324 327 331 336 335 333 333 334 333 331 330 329 329 326 321 320 322 324
275 279 282 284 285 290 291 287 280 283 291 294 294 296 301 305 309 306 297 292 305 321 326 320 322 328 333 337 342 342 337 335 332 331 329 327 327 328 328 332 329 324 321 320
273 275 282 286 284 286 296 294 287 286 289 293 297 299 298 298 301 305 307 310 312 320 324 320 326 332 338 348 346 340 336 334 331 328 324 323 323 324 325 328 328 330 330 324
279 286 289 294 300 302 304 304 301 296 291 289 291 293 296 302 300 288 288 310 322 324 325 326 333 337 344 349 339 334 331 329 325 322 323 325 326 325 325 330 333 334 333 331
288 289 294 306 308 299 298 305 309 308 306 304 303 301 296 287 289 301 305 308 318 326 323 327 334 338 343 333 331 326 325 324 322 323 327 328 326 324 325 326 322 320 322 322
292 290 286 284 286 296 306 311 312 313 315 315 313 311 307 301 296 299 304 309 313 321 324 320 322 327 327 324 322 320 320 323 329 330 326 323 322 320 319 319 317 312 310 308
319 313 311 315 319 318 314 312 312 313 315 311 309 311 314 316 315 315 315 314 315 316 315 316 317 317 317 318 318 318 319 319 319 318 316 313 314 313 312 311 308 308 307 304